QPF
0.00 0.00 0.00 0.00 0.00 0.00 0.00 0.00 0.00 0.00 0.00 0.00 0.00 0.00 0.00 0.00 0.00 0.00 0.00 0.00 0.00 0.00 0.00 0.00 0.00 0.00 0.00 0.00 0.00 0.00 0.00 0.00 0.00 0.00 0.00 0.00 0.00 0.00 0.00 0.00 0.00 0.00 0.00
0.00 0.00 0.00 0.00 0.00 0.00 0.00 0.00 0.00 0.00 0.00 0.00 0.00 0.00 0.00 0.00 0.00 0.00 0.00 0.00 0.00 0.00 0.00 0.00 0.00 0.00 0.00 0.00 0.00 0.00 0.00 0.00 0.00 0.00 0.00 0.00 0.00 0.00 0.00 0.00 0.00 0.00 0.00
0.00 0.00 0.00 0.00 0.00 0.00 0.00 0.00 0.00 0.00 0.00 0.00 0.00 0.00 0.00 0.00 0.00 0.00 0.00 0.00 0.00 0.00 0.00 0.00 0.00 0.00 0.00 0.00 0.00 0.00 0.00 0.00 0.00 0.00 0.00 0.00 0.00 0.00 0.00 0.00 0.00 0.00 0.00
0.00 0.00 0.00 0.00 0.00 0.00 0.00 0.00 0.00 0.00 0.00 0.00 0.00 0.00 0.00 0.00 0.00 0.00 0.00 0.00 0.00 0.00 0.00 0.00 0.00 0.00 0.00 0.00 0.00 0.00 0.00 0.00 0.00 0.00 0.00 0.00 0.00 0.00 0.00 0.00 0.00 0.00 0.00
0.00 0.00 0.00 0.00 0.00 0.00 0.00 0.00 0.00 0.00 0.00 0.00 0.00 0.00 0.00 0.00 0.00 0.00 0.00 0.00 0.00 0.00 0.00 0.00 0.00 0.00 0.00 0.00 0.00 0.00 0.00 0.00 0.00 0.00 0.00 0.00 0.00 0.00 0.00 0.00 0.00 0.00 0.00
0.00 0.00 0.00 0.00 0.00 0.00 0.00 0.00 0.00 0.00 0.00 0.00 0.00 0.00 0.00 0.00 0.00 0.00 0.00 0.00 0.00 0.00 0.00 0.00 0.00 0.00 0.00 0.00 0.00 0.00 0.00 0.00 0.00 0.00 0.00 0.00 0.00 0.00 0.00 0.00 0.00 0.00 0.00
0.00 0.00 0.00 0.00 0.00 0.00 0.00 0.00 0.00 0.00 0.00 0.00 0.00 0.00 0.00 0.00 0.00 0.00 0.00 0.00 0.00 0.00 0.00 0.00 0.00 0.00 0.00 0.00 0.00 0.00 0.00 0.00 0.00 0.00 0.00 0.00 0.00 0.00 0.00 0.00 0.01 0.00 0.00
0.00 0.00 0.00 0.00 0.00 0.00 0.00 0.00 0.00 0.00 0.00 0.00 0.00 0.00 0.00 0.00 0.00 0.00 0.00 0.00 0.00 0.00 0.00 0.00 0.00 0.00 0.00 0.00 0.00 0.00 0.00 0.00 0.00 0.00 0.00 0.00 0.00 0.00 0.00 0.00 0.01 0.00 0.00
0.00 0.00 0.00 0.00 0.00 0.00 0.00 0.00 0.00 0.00 0.00 0.00 0.00 0.00 0.00 0.00 0.00 0.00 0.00 0.00 0.00 0.00 0.00 0.00 0.00 0.00 0.00 0.00 0.00 0.00 0.00 0.00 0.00 0.00 0.00 0.00 0.00 0.01 0.00 0.00 0.01 0.02 0.04
0.00 0.00 0.00 0.00 0.00 0.00 0.00 0.00 0.00 0.00 0.00 0.00 0.00 0.00 0.00 0.00 0.00 0.00 0.00 0.00 0.00 0.00 0.00 0.00 0.00 0.00 0.00 0.00 0.00 0.00 0.00 0.00 0.00 0.00 0.00 0.00 0.00 0.01 0.01 0.02 0.03 0.05 0.05
0.00 0.00 0.00 0.00 0.00 0.00 0.00 0.00 0.00 0.00 0.00 0.00 0.00 0.00 0.00 0.00 0.00 0.00 0.00 0.00 0.00 0.00 0.00 0.00 0.00 0.00 0.00 0.00 0.00 0.00 0.00 0.00 0.00 0.00 0.00 0.00 0.00 0.00 0.00 0.04 0.06 0.06 0.03
0.00 0.00 0.00 0.00 0.00 0.00 0.00 0.00 0.00 0.00 0.00 0.00 0.00 0.00 0.00 0.00 0.00 0.00 0.00 0.00 0.00 0.00 0.00 0.00 0.00 0.00 0.00 0.00 0.00 0.00 0.00 0.00 0.00 0.00 0.00 0.00 0.00 0.00 0.03 0.07 0.08 0.05 0.04
0.00 0.00 0.00 0.00 0.00 0.00 0.00 0.00 0.00 0.00 0.00 0.00 0.00 0.00 0.00 0.00 0.00 0.00 0.00 0.00 0.00 0.00 0.00 0.00 0.00 0.00 0.00 0.00 0.00 0.00 0.00 0.01 0.01 0.00 0.00 0.00 0.00 0.06 0.10 0.08 0.06 0.06 0.05
0.00 0.00 0.00 0.00 0.00 0.00 0.00 0.00 0.00 0.00 0.00 0.00 0.01 0.00 0.00 0.00 0.00 0.00 0.00 0.00 0.00 0.00 0.00 0.00 0.00 0.00 0.00 0.00 0.00 0.00 0.01 0.01 0.01 0.01 0.00 0.01 0.10 0.26 0.21 0.10 0.07 0.09 0.02
0.00 0.00 0.00 0.00 0.00 0.00 0.00 0.00 0.00 0.00 0.00 0.00 0.00 0.00 0.00 0.00 0.00 0.00 0.00 0.00 0.00 0.00 0.00 0.00 0.00 0.00 0.00 0.00 0.00 0.00 0.02 0.03 0.03 0.16 0.23 0.16 0.16 0.29 0.26 0.15 0.09 0.05 0.01
0.00 0.00 0.00 0.00 0.00 0.00 0.00 0.00 0.00 0.00 0.00 0.00 0.00 0.01 0.00 0.00 0.00 0.00 0.00 0.00 0.00 0.00 0.00 0.00 0.00 0.00 0.00 0.00 0.00 0.00 0.01 0.03 0.09 0.33 0.31 0.19 0.28 0.27 0.20 0.12 0.05 0.02 0.02
0.00 0.00 0.00 0.00 0.00 0.00 0.00 0.00 0.00 0.00 0.00 0.00 0.00 0.00 0.00 0.00 0.00 0.00 0.00 0.00 0.02 0.00 0.00 0.00 0.00 0.00 0.00 0.00 0.01 0.01 0.01 0.03 0.11 0.25 0.26 0.24 0.23 0.18 0.14 0.09 0.02 0.01 0.01
0.00 0.00 0.00 0.00 0.00 0.00 0.01 0.01 0.01 0.00 0.00 0.00 0.00 0.00 0.00 0.00 0.00 0.00 0.00 0.00 0.00 0.00 0.00 0.00 0.00 0.00 0.00 0.01 0.01 0.02 0.03 0.04 0.07 0.10 0.16 0.21 0.20 0.18 0.12 0.05 0.02 0.00 0.00
0.00 0.00 0.01 0.01 0.01 0.00 0.02 0.02 0.00 0.00 0.00 0.00 0.00 0.00 0.00 0.00 0.00 0.00 0.00 0.00 0.00 0.00 0.00 0.00 0.01 0.01 0.01 0.01 0.01 0.02 0.03 0.05 0.08 0.12 0.15 0.18 0.16 0.16 0.09 0.03 0.00 0.00 0.00
0.00 0.00 0.00 0.00 0.00 0.00 0.00 0.01 0.00 0.00 0.00 0.00 0.00 0.00 0.00 0.00 0.00 0.00 0.00 0.00 0.00 0.00 0.00 0.00 0.00 0.00 0.00 0.01 0.01 0.02 0.03 0.06 0.07 0.10 0.13 0.15 0.12 0.08 0.05 0.01 0.00 0.00 0.00
0.00 0.00 0.00 0.00 0.00 0.00 0.00 0.00 0.00 0.00 0.00 0.00 0.00 0.00 0.00 0.00 0.00 0.00 0.00 0.00 0.00 0.00 0.00 0.00 0.00 0.00 0.00 0.00 0.00 0.01 0.02 0.04 0.05 0.07 0.07 0.08 0.07 0.02 0.01 0.01 0.00 0.00 0.00
0.00 0.00 0.00 0.00 0.00 0.00 0.00 0.00 0.00 0.00 0.00 0.00 0.00 0.00 0.00 0.00 0.00 0.00 0.00 0.00 0.00 0.00 0.00 0.00 0.00 0.00 0.00 0.00 0.00 0.00 0.01 0.03 0.03 0.03 0.04 0.03 0.02 0.01 0.01 0.00 0.00 0.00 0.00
0.00 0.00 0.00 0.00 0.00 0.00 0.00 0.00 0.00 0.00 0.00 0.00 0.00 0.00 0.00 0.00 0.00 0.00 0.00 0.00 0.00 0.00 0.00 0.00 0.00 0.00 0.00 0.00 0.00 0.00 0.00 0.00 0.01 0.02 0.03 0.04 0.02 0.00 0.00 0.00 0.00 0.00 0.00
0.00 0.00 0.00 0.00 0.00 0.00 0.00 0.00 0.00 0.00 0.00 0.00 0.00 0.00 0.00 0.00 0.00 0.00 0.00 0.00 0.00 0.00 0.00 0.00 0.00 0.00 0.00 0.00 0.00 0.00 0.00 0.01 0.02 0.01 0.01 0.00 0.00 0.00 0.00 0.00 0.00 0.00 0.00
0.00 0.00 0.00 0.00 0.00 0.00 0.00 0.00 0.00 0.00 0.00 0.00 0.00 0.00 0.00 0.00 0.00 0.00 0.00 0.00 0.00 0.00 0.00 0.00 0.00 0.00 0.00 0.00 0.00 0.00 0.00 0.00 0.00 0.00 0.00 0.00 0.00 0.00 0.00 0.00 0.00 0.00 0.00
0.00 0.00 0.00 0.00 0.00 0.00 0.00 0.00 0.00 0.00 0.00 0.00 0.00 0.00 0.00 0.00 0.00 0.00 0.00 0.00 0.00 0.00 0.01 0.01 0.01 0.01 0.00 0.00 0.00 0.00 0.00 0.00 0.00 0.00 0.00 0.00 0.00 0.00 0.00 0.00 0.00 0.00 0.00
MSLP
1007.91 1008.32 1009.03 1009.82 1010.44 1011.05 1011.45 1011.90 1012.29 1012.47 1012.66 1013.07 1013.45 1013.99 1014.35 1014.94 1015.47 1015.97 1016.35 1016.72 1017.23 1017.70 1017.93 1018.24 1018.51 1018.60 1018.70 1018.89 1018.92 1018.68 1019.02 1019.30 1019.85 1019.76 1019.44 1019.30 1019.59 1019.67 1019.97 1020.11 1020.37 1020.66 1020.82
1006.65 1007.71 1008.53 1009.20 1009.88 1010.43 1010.79 1011.10 1011.49 1011.85 1012.02 1012.35 1012.84 1013.32 1013.94 1014.48 1015.08 1015.67 1016.04 1016.25 1016.66 1017.09 1017.26 1017.62 1017.88 1018.19 1018.35 1018.38 1018.44 1018.42 1018.39 1018.49 1019.03 1019.56 1019.43 1019.25 1019.26 1019.42 1019.41 1019.91 1019.81 1019.79 1020.08
1005.91 1006.84 1007.67 1008.31 1008.99 1009.58 1009.95 1010.31 1010.69 1010.97 1011.28 1011.71 1012.33 1012.81 1013.34 1013.87 1014.33 1014.68 1014.97 1015.24 1015.58 1015.90 1016.37 1016.84 1017.05 1017.40 1017.48 1017.42 1017.74 1018.23 1018.20 1018.14 1018.39 1018.84 1019.14 1019.00 1018.95 1019.15 1019.41 1019.41 1019.49 1019.41 1019.49
1005.05 1005.84 1006.52 1007.20 1007.92 1008.44 1008.99 1009.46 1009.84 1010.20 1010.54 1011.01 1011.55 1012.15 1012.40 1012.74 1013.30 1013.79 1014.14 1014.53 1014.88 1015.12 1015.38 1015.51 1015.72 1016.05 1016.21 1016.56 1017.20 1017.52 1017.72 1018.13 1018.24 1018.35 1018.49 1018.61 1018.68 1018.69 1018.90 1019.26 1019.67 1019.42 1019.20
1003.82 1004.55 1005.16 1006.02 1006.71 1007.36 1007.90 1008.42 1008.99 1009.40 1009.87 1010.36 1010.73 1011.04 1011.47 1011.83 1012.15 1012.69 1013.11 1013.47 1013.75 1014.11 1014.32 1014.51 1014.69 1014.77 1015.09 1015.44 1016.09 1016.45 1016.84 1017.29 1017.41 1017.65 1018.04 1018.10 1018.06 1018.14 1018.13 1018.46 1018.69 1018.60 1018.88
1002.13 1002.88 1003.96 1004.88 1005.58 1006.19 1006.79 1007.42 1008.01 1008.47 1008.96 1009.46 1009.81 1010.02 1010.42 1010.67 1010.97 1011.42 1011.93 1012.40 1012.72 1013.02 1013.29 1013.39 1013.49 1013.80 1014.11 1014.40 1014.75 1015.11 1015.49 1015.96 1016.17 1016.41 1016.47 1016.75 1016.77 1016.94 1017.24 1017.70 1018.09 1018.83 1019.06
1000.96 1001.82 1002.71 1003.66 1004.48 1005.07 1005.71 1006.38 1006.92 1007.29 1007.95 1008.34 1008.72 1009.10 1009.23 1009.58 1010.06 1010.50 1010.94 1011.26 1011.55 1011.66 1011.84 1012.21 1012.48 1012.59 1013.04 1013.49 1013.88 1014.19 1014.44 1014.63 1014.71 1015.05 1015.31 1015.18 1015.43 1015.46 1016.01 1016.54 1016.94 1017.37 1017.61
1000.13 1000.93 1001.83 1002.65 1003.37 1004.12 1004.71 1005.18 1005.72 1006.26 1006.72 1007.15 1007.63 1007.87 1008.14 1008.28 1008.86 1009.40 1010.00 1010.47 1010.57 1010.59 1010.71 1010.91 1011.12 1011.33 1011.73 1012.46 1013.03 1013.45 1013.70 1013.72 1013.87 1014.22 1014.22 1014.45 1014.47 1014.47 1014.68 1014.72 1015.28 1016.10 1016.67
999.37 1000.08 1000.66 1001.46 1002.32 1003.09 1003.57 1004.15 1004.73 1005.32 1005.77 1006.07 1006.50 1006.87 1007.03 1007.15 1007.73 1008.38 1009.35 1009.72 1009.52 1009.31 1009.63 1009.96 1010.09 1010.14 1010.42 1010.96 1011.69 1012.01 1012.27 1012.18 1012.49 1012.78 1012.85 1013.03 1013.42 1013.65 1013.77 1014.52 1015.46 1016.22 1016.70
998.45 998.85 999.75 1000.48 1001.21 1001.78 1002.38 1003.05 1003.62 1004.15 1004.64 1005.26 1005.39 1005.55 1005.88 1006.04 1006.75 1007.67 1008.57 1008.84 1008.68 1008.41 1009.03 1008.87 1008.96 1009.02 1009.60 1010.05 1010.50 1010.68 1010.77 1010.41 1011.27 1011.73 1012.42 1012.38 1011.86 1012.24 1013.12 1013.43 1014.65 1015.59 1015.92
997.61 998.47 999.14 999.67 1000.13 1000.61 1001.42 1002.12 1002.75 1003.38 1003.99 1004.32 1004.55 1004.72 1004.89 1005.21 1005.99 1006.73 1007.42 1007.77 1007.41 1007.77 1007.79 1007.49 1007.70 1008.03 1008.74 1009.14 1009.46 1009.46 1008.55 1009.50 1009.92 1010.32 1010.54 1010.87 1011.67 1012.22 1012.66 1012.86 1013.30 1014.12 1014.53
997.54 997.99 998.44 998.91 999.54 1000.29 1000.89 1001.51 1002.08 1002.68 1003.18 1003.55 1003.90 1004.08 1004.22 1004.54 1005.03 1005.68 1006.29 1006.63 1006.68 1006.80 1006.40 1006.25 1006.49 1006.77 1007.07 1007.47 1008.02 1007.54 1007.66 1008.14 1008.42 1008.80 1009.11 1009.45 1010.21 1010.94 1011.05 1010.99 1011.08 1011.09 1012.80
997.40 997.76 998.16 998.58 999.08 999.61 1000.32 1001.03 1001.60 1001.98 1002.39 1002.87 1003.34 1003.59 1003.71 1003.95 1004.22 1004.61 1005.04 1005.46 1005.68 1005.91 1005.24 1005.05 1005.14 1005.44 1005.81 1006.24 1006.12 1006.14 1006.44 1006.91 1006.96 1007.17 1007.22 1007.64 1008.08 1008.63 1009.12 1010.06 1010.99 1011.52 1011.80
997.76 997.72 997.85 998.26 998.74 999.24 999.88 1000.47 1001.04 1001.47 1001.87 1002.46 1002.93 1003.13 1003.39 1003.72 1003.76 1003.62 1003.88 1004.48 1004.78 1004.95 1004.51 1004.33 1004.32 1004.45 1004.46 1004.75 1005.08 1005.38 1005.53 1005.14 1005.18 1005.33 1005.52 1005.95 1006.78 1007.59 1008.38 1009.13 1008.87 1010.22 1011.81
997.53 997.48 997.69 997.95 998.35 998.97 999.57 1000.26 1000.97 1000.98 1001.17 1001.93 1002.38 1002.71 1003.24 1003.55 1003.86 1003.96 1004.10 1004.09 1004.00 1004.09 1004.23 1004.16 1003.93 1003.89 1004.04 1003.95 1004.05 1004.11 1004.27 1004.39 1004.36 1004.36 1004.39 1004.85 1005.16 1006.20 1007.04 1007.90 1008.54 1008.69 1009.75
997.85 997.68 997.63 997.81 998.23 998.73 999.49 1000.56 1001.71 1001.59 1001.67 1001.92 1002.30 1002.15 1003.45 1003.76 1004.07 1004.12 1004.20 1004.09 1003.93 1003.91 1004.13 1003.76 1003.41 1003.20 1003.03 1002.84 1002.82 1002.75 1002.94 1002.93 1002.90 1003.14 1003.60 1003.65 1004.29 1004.72 1005.65 1006.78 1006.65 1009.34 1007.32
998.33 997.79 997.57 997.76 998.13 998.43 998.92 1000.04 1001.65 1003.15 1003.08 1002.96 1002.97 1003.23 1003.57 1004.08 1004.19 1004.26 1004.11 1003.94 1003.67 1003.56 1003.66 1003.19 1002.92 1002.64 1002.23 1001.85 1001.65 1001.51 1001.33 1001.38 1001.17 1001.53 1001.59 1002.37 1001.92 1002.90 1003.61 1005.45 1006.40 1006.42 1007.71
998.42 998.08 997.86 998.12 998.32 998.52 999.10 999.89 1000.45 1001.92 1002.99 1003.70 1003.85 1003.64 1003.91 1004.11 1004.26 1004.19 1003.63 1003.60 1004.10 1004.00 1003.96 1003.73 1003.31 1002.80 1002.17 1001.53 1000.94 1000.64 1000.23 1000.10 1000.16 999.94 999.79 1000.01 1000.43 1000.93 1001.46 1003.32 1005.64 1005.31 1008.31
998.51 998.68 998.61 998.70 998.89 999.17 999.71 1000.08 1000.73 1001.63 1002.48 1003.14 1003.76 1003.89 1003.75 1003.79 1004.03 1004.07 1003.80 1003.92 1004.22 1004.15 1004.09 1003.89 1003.46 1002.95 1002.35 1001.76 1001.13 1000.59 1000.01 999.31 998.53 998.25 998.23 998.09 998.34 997.73 999.11 1000.27 1003.26 1004.87 1006.50
998.88 998.83 998.97 999.17 999.40 999.66 1000.09 1000.54 1001.20 1001.81 1002.44 1003.13 1003.78 1004.11 1004.02 1003.86 1004.40 1004.21 1003.84 1003.88 1003.91 1003.75 1003.47 1003.22 1003.03 1002.64 1001.98 1001.33 1000.78 1000.06 998.94 998.00 997.41 996.90 996.11 997.35 998.51 997.92 999.31 1000.05 1001.85 1004.57 1004.95
998.99 999.14 999.22 999.47 999.86 1000.20 1000.61 1001.12 1001.53 1002.02 1002.61 1003.31 1003.80 1003.85 1003.92 1004.08 1004.21 1004.11 1004.06 1004.00 1003.83 1003.40 1002.96 1002.60 1002.30 1002.12 1001.75 1001.31 1000.63 999.90 998.54 997.20 996.48 996.00 996.83 996.86 997.34 997.96 1000.10 1001.79 1003.26 1003.52 1005.71
999.07 999.49 999.97 1000.53 1001.01 1001.46 1001.90 1002.24 1002.53 1002.82 1003.16 1003.65 1004.16 1004.36 1004.53 1004.48 1004.41 1004.42 1004.16 1003.75 1003.36 1003.14 1002.78 1002.24 1001.82 1001.63 1001.45 1001.10 1000.65 1000.23 999.36 998.51 998.06 997.12 997.43 997.41 998.31 1000.27 1001.04 1002.02 1003.30 1004.34 1005.62
1000.04 1000.44 1001.12 1001.64 1002.30 1002.63 1003.08 1003.64 1003.96 1004.30 1004.64 1004.92 1005.21 1005.35 1005.26 1005.03 1004.74 1004.63 1004.23 1003.59 1003.33 1003.03 1002.50 1001.93 1001.67 1001.53 1001.22 1000.91 1000.52 1000.10 999.89 999.37 999.25 999.05 999.07 999.46 999.63 1000.17 1001.41 1002.49 1003.56 1004.63 1005.36
1000.99 1001.61 1002.28 1002.81 1003.50 1004.06 1004.71 1005.29 1005.72 1005.96 1006.10 1006.21 1006.25 1006.18 1006.07 1005.90 1005.53 1005.34 1004.98 1004.46 1003.89 1003.22 1002.76 1002.05 1001.84 1001.68 1001.32 1001.02 1000.71 1000.30 1000.00 999.67 999.66 999.65 999.55 999.73 1000.45 1001.14 1001.96 1002.93 1003.68 1004.16 1004.73
1001.95 1002.36 1003.29 1003.99 1004.76 1005.46 1006.03 1006.43 1006.74 1006.95 1007.13 1007.24 1007.19 1007.00 1006.89 1006.78 1006.52 1006.26 1005.80 1005.31 1004.77 1004.48 1004.16 1003.72 1003.50 1002.54 1001.83 1001.47 1001.24 1000.87 1000.51 1000.02 1000.18 1000.24 1000.17 1000.38 1001.12 1001.79 1002.30 1002.90 1003.64 1004.09 1004.68
1003.14 1003.54 1004.21 1004.59 1005.44 1006.17 1006.66 1007.17 1007.55 1007.95 1008.15 1008.28 1008.29 1008.15 1008.13 1007.82 1007.49 1007.01 1006.58 1006.15 1005.91 1005.75 1005.52 1005.31 1004.56 1004.19 1003.65 1003.04 1002.53 1001.45 1001.04 1000.89 1000.86 1000.21 1000.58 1001.08 1001.70 1002.24 1002.72 1003.17 1003.72 1004.27 1004.79
Thickness
5840 5840 5838 5835 5834 5832 5831 5828 5826 5826 5826 5823 5821 5819 5818 5814 5810 5806 5802 5799 5793 5788 5787 5783 5781 5782 5780 5778 5777 5777 5774 5770 5759 5763 5766 5767 5764 5761 5756 5751 5747 5742 5735
5846 5841 5839 5838 5835 5833 5832 5831 5830 5826 5827 5826 5822 5820 5816 5813 5810 5804 5799 5799 5794 5790 5789 5787 5784 5783 5780 5780 5779 5779 5779 5777 5768 5759 5766 5766 5763 5762 5758 5751 5748 5745 5739
5850 5846 5843 5841 5839 5836 5836 5836 5833 5832 5830 5828 5824 5820 5817 5814 5810 5808 5806 5803 5801 5799 5795 5791 5789 5787 5786 5789 5784 5779 5778 5778 5774 5765 5760 5765 5764 5761 5754 5751 5747 5745 5742
5853 5850 5848 5846 5844 5843 5842 5840 5838 5836 5834 5831 5828 5824 5823 5820 5817 5814 5811 5807 5804 5803 5801 5801 5800 5798 5795 5793 5786 5783 5780 5776 5772 5768 5763 5761 5762 5763 5757 5749 5742 5744 5740
5859 5857 5855 5854 5852 5850 5848 5846 5843 5840 5837 5834 5832 5831 5829 5827 5826 5821 5818 5814 5812 5809 5810 5809 5808 5809 5805 5801 5793 5789 5785 5779 5775 5770 5764 5762 5758 5757 5758 5756 5751 5749 5742
5869 5866 5863 5860 5858 5856 5854 5851 5848 5845 5843 5839 5837 5837 5834 5834 5833 5829 5826 5821 5819 5816 5814 5816 5817 5812 5809 5807 5802 5798 5794 5786 5782 5778 5775 5769 5767 5762 5759 5752 5746 5734 5725
5873 5873 5871 5867 5862 5862 5859 5856 5853 5850 5848 5845 5843 5842 5842 5842 5838 5834 5831 5830 5827 5826 5824 5821 5820 5821 5816 5811 5805 5800 5796 5792 5791 5785 5779 5778 5772 5770 5762 5754 5748 5738 5732
5877 5876 5875 5872 5869 5866 5864 5862 5860 5857 5854 5852 5850 5850 5849 5850 5845 5840 5836 5834 5833 5833 5832 5829 5827 5826 5823 5815 5808 5802 5798 5795 5791 5785 5781 5777 5774 5772 5769 5764 5754 5742 5733
5879 5879 5880 5879 5874 5870 5868 5866 5864 5860 5857 5857 5856 5854 5854 5855 5850 5845 5835 5833 5834 5836 5835 5832 5830 5830 5828 5818 5811 5806 5801 5802 5797 5791 5786 5781 5775 5768 5765 5755 5740 5726 5717
5883 5886 5884 5881 5878 5876 5875 5871 5869 5866 5863 5860 5859 5861 5860 5860 5854 5844 5836 5834 5832 5835 5830 5833 5831 5833 5826 5818 5812 5807 5803 5809 5798 5792 5783 5781 5783 5775 5761 5752 5736 5720 5713
5885 5880 5879 5880 5881 5881 5876 5874 5870 5866 5862 5861 5860 5861 5862 5862 5856 5845 5838 5836 5838 5831 5830 5834 5834 5830 5823 5818 5812 5810 5817 5809 5802 5795 5790 5784 5774 5765 5757 5747 5734 5725 5718
5876 5875 5877 5878 5878 5873 5870 5869 5867 5863 5859 5857 5856 5856 5860 5859 5854 5846 5840 5837 5837 5833 5835 5839 5836 5831 5825 5820 5813 5819 5815 5807 5802 5796 5790 5784 5773 5761 5756 5748 5745 5739 5724
5867 5869 5870 5872 5872 5870 5865 5860 5858 5859 5856 5853 5850 5849 5852 5853 5853 5847 5842 5838 5834 5830 5838 5839 5835 5829 5823 5819 5819 5818 5812 5805 5799 5793 5791 5786 5782 5772 5760 5744 5730 5723 5718
5856 5860 5864 5864 5863 5863 5861 5859 5855 5852 5849 5846 5843 5843 5845 5844 5846 5848 5845 5839 5834 5830 5832 5833 5831 5827 5826 5821 5814 5811 5807 5805 5799 5795 5791 5785 5777 5767 5751 5737 5721 5715 5701
5850 5855 5857 5859 5859 5857 5856 5852 5850 5851 5848 5842 5842 5841 5836 5836 5837 5834 5833 5834 5832 5829 5824 5822 5821 5818 5813 5815 5809 5807 5802 5795 5789 5788 5782 5773 5769 5761 5750 5735 5717 5706 5706
5838 5845 5849 5850 5850 5849 5846 5839 5830 5833 5834 5832 5830 5836 5826 5823 5819 5818 5817 5817 5817 5815 5814 5813 5812 5811 5808 5809 5805 5802 5799 5793 5787 5778 5767 5764 5755 5752 5741 5726 5723 5695 5710
5825 5834 5839 5840 5840 5841 5841 5839 5824 5813 5810 5812 5814 5813 5810 5807 5806 5805 5807 5806 5806 5805 5803 5805 5805 5805 5805 5805 5802 5799 5794 5791 5788 5775 5766 5752 5755 5747 5741 5718 5704 5690 5694
5814 5819 5825 5827 5829 5831 5828 5826 5822 5812 5807 5803 5798 5800 5796 5793 5793 5793 5797 5798 5791 5788 5785 5783 5784 5787 5789 5789 5790 5788 5786 5783 5776 5771 5765 5755 5744 5736 5733 5717 5702 5696 5667
5803 5805 5808 5809 5811 5813 5810 5809 5807 5802 5797 5795 5791 5788 5786 5785 5781 5781 5782 5781 5777 5774 5771 5769 5769 5768 5770 5771 5772 5772 5771 5773 5773 5768 5760 5750 5737 5730 5714 5713 5685 5687 5674
5788 5791 5793 5794 5794 5795 5794 5791 5789 5787 5785 5781 5776 5773 5773 5773 5771 5771 5771 5768 5764 5761 5761 5760 5758 5757 5758 5759 5760 5760 5766 5769 5768 5762 5758 5738 5722 5719 5709 5688 5696 5673 5683
5775 5778 5779 5779 5778 5776 5775 5775 5775 5772 5768 5763 5758 5758 5754 5756 5755 5755 5753 5751 5749 5749 5749 5750 5749 5747 5745 5744 5746 5748 5756 5761 5761 5754 5735 5721 5718 5703 5686 5675 5674 5680 5665
5759 5759 5759 5758 5758 5756 5754 5753 5751 5749 5747 5744 5740 5738 5731 5737 5738 5736 5736 5737 5738 5736 5737 5738 5738 5737 5735 5733 5733 5734 5738 5739 5736 5735 5722 5710 5703 5695 5686 5677 5672 5666 5659
5738 5738 5737 5737 5732 5730 5727 5724 5723 5721 5719 5718 5717 5717 5718 5719 5719 5718 5720 5723 5722 5723 5726 5727 5726 5724 5722 5721 5721 5721 5720 5722 5718 5718 5714 5706 5698 5693 5683 5673 5663 5653 5648
5713 5710 5708 5709 5704 5700 5697 5693 5691 5690 5691 5692 5692 5693 5693 5694 5696 5696 5697 5700 5704 5707 5708 5713 5712 5709 5708 5708 5708 5708 5708 5708 5705 5703 5701 5695 5684 5675 5669 5660 5653 5650 5647
5690 5689 5683 5680 5677 5671 5669 5667 5666 5665 5664 5664 5666 5668 5669 5670 5671 5671 5674 5676 5679 5679 5680 5681 5681 5689 5693 5693 5692 5692 5690 5694 5693 5689 5686 5681 5673 5665 5661 5656 5650 5647 5642
5658 5660 5657 5656 5651 5648 5646 5644 5642 5641 5640 5639 5638 5640 5639 5642 5645 5649 5653 5654 5651 5651 5652 5652 5658 5657 5661 5664 5666 5673 5675 5675 5675 5677 5675 5668 5660 5655 5651 5646 5642 5637 5633